Seminole, TX

7:39 AM CST on November 23, 2017 (GMT -0600)
Seminole

Weather History for KGNC - March, 2013

Change the Weather History Date:

Sunday, March 3, 2013

  Actual Average (KHOB) Record (KHOB)
Temperature  
Mean Temperature 58 °F -  
Max Temperature 81 °F 61 °F 86 °F (2009)
Min Temperature 35 °F 33 °F 12 °F (2002)
Degree Days  
Heating Degree Days 7    
Growing Degree Days 8 (Base 50)    
Moisture  
Dew Point 15 °F    
Average Humidity 23    
Maximum Humidity 50    
Minimum Humidity 7    
Precipitation  
Precipitation 0.00 in - - ()
Sea Level Pressure  
Sea Level Pressure 29.98 in    
Wind  
Wind Speed 8 mph (SW)    
Max Wind Speed 24 mph    
Max Gust Speed 36 mph    
Visibility 10 miles    
Events      
Averages and records for this station are not official NWS values.
T = Trace of Precipitation, MM = Missing Value Source: NWS Daily Summary

Daily Weather History Graph

Daily Weather History Graph

Search for Another Location

Airport or City:

Trip Planner

Search our weather history database for the weather conditions in past years. The results will help you decide how hot, cold, wet, or windy it might be!

Date:

Astronomy

Mar. 03, 2013 Rise Set
Actual Time 7:15 AM CST 6:49 PM CST
Civil Twilight 6:50 AM CST 7:14 PM CST
Nautical Twilight 6:22 AM CST 7:42 PM CST
Astronomical Twilight 5:53 AM CST 8:11 PM CST
Moon 12:09 AM CST (3/3) 10:54 AM CST (3/3)
Length of Visible Light 12h 23m
Length of Day
11h 34m
Waning Gibbous, 63% of the Moon is Illuminated
Mar 3
Waning Gibbous
Mar 4
Last Quarter
Mar 11
New
Mar 19
First Quarter
Mar 27
Full

Hourly Weather History & Observations

Time (CST) Temp. Windchill Dew Point Humidity Pressure Visibility Wind Dir Wind Speed Gust Speed Precip Events Conditions
12:15 AM 45.1 °F 41.4 °F 17.2 °F 33% 30.21 in 10.0 mi SW 6.9 mph - N/A   Clear
12:35 AM 45.9 °F - 17.1 °F 32% 30.19 in 10.0 mi Calm Calm - N/A   Clear
12:55 AM 45.3 °F 42.3 °F 17.2 °F 33% 30.19 in 10.0 mi SSW 5.8 mph - N/A   Clear
1:35 AM 44.4 °F 40.0 °F 17.2 °F 34% 30.18 in 10.0 mi SW 8.1 mph - N/A   Clear
1:55 AM 43.9 °F - 16.9 °F 34% 30.18 in 10.0 mi Calm Calm - N/A   Clear
2:15 AM 41.4 °F - 16.7 °F 37% 30.18 in 10.0 mi Calm Calm - N/A   Clear
2:35 AM 40.1 °F - 17.4 °F 40% 30.17 in 10.0 mi Calm Calm - N/A   Clear
2:55 AM 39.7 °F - 17.4 °F 41% 30.16 in 10.0 mi Calm Calm - N/A   Clear
3:15 AM 40.6 °F - 17.1 °F 39% 30.15 in 10.0 mi Calm Calm - N/A   Clear
3:35 AM 41.5 °F - 16.7 °F 37% 30.14 in 10.0 mi Calm Calm - N/A   Clear
3:55 AM 39.0 °F 35.7 °F 17.6 °F 42% 30.13 in 10.0 mi SW 4.6 mph - N/A   Clear
4:15 AM 37.8 °F - 18.5 °F 46% 30.13 in 10.0 mi Calm Calm - N/A   Clear
4:35 AM 38.5 °F - 18.5 °F 45% 30.11 in 10.0 mi Calm Calm - N/A   Clear
4:55 AM 37.4 °F - 18.5 °F 46% 30.11 in 10.0 mi Calm Calm - N/A   Clear
5:15 AM 37.6 °F - 18.3 °F 46% 30.11 in 10.0 mi Calm Calm - N/A   Clear
5:35 AM 36.5 °F - 18.5 °F 48% 30.10 in 10.0 mi Calm Calm - N/A   Clear
6:15 AM 36.5 °F - 18.5 °F 48% 30.10 in 10.0 mi Calm Calm - N/A   Clear
6:55 AM 35.8 °F - 18.5 °F 50% 30.09 in 10.0 mi Calm Calm - N/A   Clear
7:15 AM 36.0 °F - 18.3 °F 49% 30.08 in 10.0 mi Calm Calm - N/A   Clear
7:35 AM 35.8 °F - 18.9 °F 50% 30.08 in 10.0 mi Calm Calm - N/A   Clear
7:55 AM 38.8 °F - 19.0 °F 45% 30.08 in 10.0 mi Calm Calm - N/A   Clear
8:15 AM 42.8 °F 37.5 °F 17.6 °F 36% 30.08 in 10.0 mi SW 9.2 mph - N/A   Clear
8:35 AM 43.9 °F 38.3 °F 17.6 °F 35% 30.08 in 10.0 mi SW 10.4 mph - N/A   Clear
8:55 AM 45.9 °F 40.8 °F 17.1 °F 32% 30.08 in 10.0 mi SW 10.4 mph - N/A   Clear
9:15 AM 47.3 °F - 17.4 °F 30% 30.07 in 10.0 mi SW 10.4 mph - N/A   Clear
9:35 AM 51.1 °F - 18.7 °F 28% 30.07 in 10.0 mi SW 10.4 mph - N/A   Clear
9:55 AM 57.4 °F - 19.0 °F 22% 30.07 in 10.0 mi WSW 12.7 mph 16.1 mph N/A   Clear
10:15 AM 60.3 °F - 18.5 °F 20% 30.06 in 10.0 mi SW 15.0 mph - N/A   Clear
10:35 AM 63.3 °F - 17.2 °F 17% 30.06 in 10.0 mi WSW 15.0 mph 19.6 mph N/A   Clear
10:55 AM 64.9 °F - 17.8 °F 16% 30.04 in 10.0 mi SW 11.5 mph - N/A   Clear
11:15 AM 66.9 °F - 18.5 °F 16% 30.03 in 10.0 mi SW 11.5 mph - N/A   Clear
11:35 AM 69.6 °F - 18.7 °F 14% 30.02 in 10.0 mi SW 12.7 mph - N/A   Clear
11:55 AM 71.6 °F - 19.0 °F 14% 30.01 in 10.0 mi SW 15.0 mph - N/A   Clear
12:15 PM 72.5 °F - 19.0 °F 13% 30.00 in 10.0 mi SW 13.8 mph 17.3 mph N/A   Clear
12:35 PM 74.3 °F - 19.4 °F 13% 29.98 in 10.0 mi SW 15.0 mph 20.7 mph N/A   Clear
12:55 PM 74.3 °F - 19.4 °F 13% 29.96 in 10.0 mi SW 15.0 mph 18.4 mph N/A   Clear
1:15 PM 76.1 °F - 19.2 °F 12% 29.94 in 10.0 mi SW 19.6 mph 23.0 mph N/A   Clear
1:35 PM 77.2 °F - 19.2 °F 11% 29.93 in 10.0 mi SW 18.4 mph 24.2 mph N/A   Clear
1:55 PM 76.5 °F - 18.3 °F 11% 29.91 in 10.0 mi SW 19.6 mph 24.2 mph N/A   Clear
2:35 PM 79.7 °F - 17.4 °F 10% 29.88 in 10.0 mi WSW 18.4 mph 26.5 mph N/A   Clear
2:55 PM 79.0 °F - 15.6 °F 9% 29.87 in 10.0 mi SW 16.1 mph 28.8 mph N/A   Clear
3:35 PM 80.2 °F - 11.1 °F 7% 29.85 in 10.0 mi WSW 24.2 mph 35.7 mph N/A   Clear
4:15 PM 80.2 °F - 9.7 °F 7% 29.83 in 10.0 mi WSW 24.2 mph 29.9 mph N/A   Clear
4:35 PM 81.0 °F - 10.8 °F 7% 29.82 in 10.0 mi WSW 24.2 mph 28.8 mph N/A   Clear
4:55 PM 80.1 °F - 9.9 °F 7% 29.82 in 10.0 mi WSW 21.9 mph 31.1 mph N/A   Clear
5:15 PM 77.2 °F - 10.9 °F 8% 29.82 in 10.0 mi WSW 23.0 mph 29.9 mph N/A   Clear
5:35 PM 75.7 °F - 11.8 °F 9% 29.83 in 10.0 mi WSW 17.3 mph 26.5 mph N/A   Clear
5:55 PM 75.7 °F - 13.3 °F 9% 29.82 in 10.0 mi WSW 15.0 mph 18.4 mph N/A   Clear
6:15 PM 75.4 °F - 12.2 °F 9% 29.83 in 10.0 mi WSW 16.1 mph 24.2 mph N/A   Clear
6:35 PM 73.4 °F - 11.3 °F 9% 29.82 in 10.0 mi WSW 15.0 mph 19.6 mph N/A   Clear
6:55 PM 71.1 °F - 11.3 °F 10% 29.82 in 10.0 mi SW 11.5 mph - N/A   Clear
7:15 PM 69.8 °F - 11.1 °F 10% 29.82 in 10.0 mi SW 12.7 mph - N/A   Clear
7:35 PM 68.2 °F - 11.1 °F 11% 29.82 in 10.0 mi SW 11.5 mph - N/A   Clear
7:55 PM 67.6 °F - 10.6 °F 11% 29.82 in 10.0 mi SW 10.4 mph - N/A   Clear
8:15 PM 65.8 °F - 10.8 °F 12% 29.81 in 10.0 mi SW 13.8 mph - N/A   Clear
8:35 PM 64.9 °F - 10.4 °F 12% 29.82 in 10.0 mi SW 9.2 mph - N/A   Clear
8:55 PM 63.1 °F - 11.1 °F 13% 29.82 in 10.0 mi WSW 9.2 mph - N/A   Clear
9:15 PM 60.4 °F - 10.9 °F 14% 29.81 in 10.0 mi WSW 9.2 mph - N/A   Clear
9:35 PM 59.9 °F - 10.8 °F 14% 29.81 in 10.0 mi WSW 9.2 mph - N/A   Clear
9:55 PM 60.6 °F - 10.4 °F 14% 29.80 in 10.0 mi WSW 10.4 mph - N/A   Clear
10:15 PM 62.8 °F - 10.0 °F 13% 29.80 in 10.0 mi WSW 12.7 mph - N/A   Clear
10:35 PM 62.4 °F - 10.0 °F 13% 29.80 in 10.0 mi WSW 11.5 mph - N/A   Clear
10:55 PM 63.5 °F - 9.5 °F 12% 29.80 in 10.0 mi WSW 13.8 mph - N/A   Clear
11:15 PM 65.7 °F - 9.5 °F 11% 29.80 in 10.0 mi WSW 17.3 mph 24.2 mph N/A   Clear
11:35 PM 67.3 °F - 8.6 °F 10% 29.80 in 10.0 mi West 17.3 mph 23.0 mph N/A   Clear
11:55 PM 67.6 °F - 8.6 °F 10% 29.80 in 10.0 mi WSW 16.1 mph - N/A   Clear